Weather History for Fort Myers, FL

Change the Weather History Date:

Tuesday, February 12, 2013

  Actual Average Record
Temperature  
Mean Temperature 74 °F 66 °F  
Max Temperature 82 °F 77 °F 88 °F (2001)
Min Temperature 65 °F 56 °F 36 °F (1955)
Degree Days  
Heating Degree Days 0 2  
Month to date heating degree days 19 30  
Since 1 July heating degree days 91 231  
Cooling Degree Days 9 4  
Month to date cooling degree days 48 38  
Year to date cooling degree days 224 121  
Growing Degree Days 22 (Base 50)    
Moisture  
Dew Point 66 °F    
Average Humidity 81    
Maximum Humidity 100    
Minimum Humidity 62    
Precipitation  
Precipitation 0.00 in 0.08 in 1.53 in (2008)
Month to date precipitation 0.01 0.84  
Year to date precipitation 0.63 2.78  
Sea Level Pressure  
Sea Level Pressure 30.05 in    
Wind  
Wind Speed 8 mph (South)    
Max Wind Speed 18 mph    
Max Gust Speed 24 mph    
Visibility 10 miles    
Events      
T = Trace of Precipitation, MM = Missing Value Source: NWS Daily Summary

Daily Weather History Graph

Daily Weather History Graph

Search for Another Location

Airport:

Trip Planner

Search our weather history database for the weather conditions in past years. The results will help you decide how hot, cold, wet, or windy it might be!

Date:

Astronomy

Feb. 12, 2013 Rise Set
Actual Time 7:05 AM EST 6:18 PM EST
Civil Twilight 6:41 AM EST 6:41 PM EST
Nautical Twilight 6:14 AM EST 7:09 PM EST
Astronomical Twilight 5:47 AM EST 7:36 PM EST
Moon 8:21 AM EST (2/12) 8:54 PM EST (2/12)
Length of Visible Light 12h 00m
Length of Day
11h 12m
Waxing Crescent, 7% of the Moon is Illuminated
Feb 12
Waxing Crescent
Feb 17
First Quarter
Feb 25
Full
Mar 4
Last Quarter
Mar 11
New

Hourly Weather History & Observations

Time (EST) Temp. Heat Index Dew Point Humidity Pressure Visibility Wind Dir Wind Speed Gust Speed Precip Events Conditions
12:53 AM 68.0 °F - 64.0 °F 87% 30.12 in 10.0 mi SSE 4.6 mph - N/A   Clear
1:53 AM 66.9 °F - 64.0 °F 90% 30.11 in 10.0 mi SE 3.5 mph - N/A   Clear
2:53 AM 66.9 °F - 64.0 °F 90% 30.09 in 10.0 mi Calm Calm - N/A   Clear
3:53 AM 66.0 °F - 63.0 °F 90% 30.09 in 10.0 mi SSE 3.5 mph - N/A   Clear
4:53 AM 66.0 °F - 64.0 °F 93% 30.07 in 10.0 mi SSE 6.9 mph - N/A   Clear
5:53 AM 66.0 °F - 64.0 °F 93% 30.07 in 10.0 mi SSE 4.6 mph - N/A   Clear
6:53 AM 64.9 °F - 64.0 °F 97% 30.08 in 8.0 mi SE 3.5 mph - N/A   Clear
7:53 AM 66.9 °F - 64.9 °F 93% 30.09 in 8.0 mi SE 3.5 mph - N/A   Clear
8:53 AM 72.0 °F - 66.9 °F 84% 30.10 in 10.0 mi SSE 5.8 mph - N/A   Clear
9:53 AM 75.9 °F - 66.9 °F 74% 30.11 in 10.0 mi SSW 5.8 mph - N/A   Clear
10:53 AM 79.0 °F - 66.0 °F 64% 30.11 in 10.0 mi SSW 12.7 mph 18.4 mph N/A   Clear
11:53 AM 81.0 °F 83.3 °F 66.9 °F 62% 30.09 in 10.0 mi SSW 13.8 mph 21.9 mph N/A   Clear
12:53 PM 81.0 °F 83.8 °F 68.0 °F 65% 30.07 in 10.0 mi SSW 15.0 mph 23.0 mph N/A   Clear
1:53 PM 81.0 °F 83.3 °F 66.9 °F 62% 30.04 in 10.0 mi SSW 15.0 mph 21.9 mph N/A   Clear
2:53 PM 81.0 °F 83.8 °F 68.0 °F 65% 30.01 in 10.0 mi SSW 16.1 mph 23.0 mph N/A   Clear
3:53 PM 80.1 °F 82.7 °F 68.0 °F 67% 29.98 in 10.0 mi South 15.0 mph 24.2 mph N/A   Partly Cloudy
4:53 PM 78.1 °F - 68.0 °F 71% 29.98 in 10.0 mi South 12.7 mph 21.9 mph N/A   Clear
5:53 PM 75.9 °F - 68.0 °F 76% 29.99 in 10.0 mi SSW 11.5 mph - N/A   Clear
6:53 PM 73.9 °F - 68.0 °F 82% 29.99 in 10.0 mi SSW 5.8 mph - N/A   Clear
7:53 PM 73.0 °F - 68.0 °F 84% 29.99 in 10.0 mi SSW 4.6 mph - N/A   Clear
8:53 PM 72.0 °F - 68.0 °F 87% 30.01 in 10.0 mi South 3.5 mph - N/A   Clear
9:53 PM 71.1 °F - 69.1 °F 93% 30.01 in 10.0 mi South 4.6 mph - N/A   Clear
10:53 PM 70.0 °F - 68.0 °F 93% 30.01 in 10.0 mi South 3.5 mph - N/A   Partly Cloudy
11:53 PM 70.0 °F - 66.9 °F 90% 30.00 in 10.0 mi South 5.8 mph - N/A   Clear